Location: Oregon Trail
(41.1872°N, 102.0741°W)
Time: 08:35:49
(UTC+00:00)

Cosmos 1725 Rocket - Pass Details

Date: 19 November 2019
Orbit: 962 x 990 km, 82.9° (Epoch: 13 December)

Event Time Altitude Azimuth Distance (km) Brightness Sun altitude
Rises 12:05:43 0° 186° (S) 3,661 7.1 -17.8°
Reaches altitude 10° 12:08:12 10° 186° (S) 2,721 6.4 -17.3°
Maximum altitude 12:14:28 88° 276° (W) 990 4.0 -16.2°
Drops below altitude 10° 12:20:49 10° 7° (N) 2,755 6.3 -15.0°
Sets 12:23:21 0° 8° (N) 3,710 7.0 -14.6°
